User: anonymous   Login
Location: Unspecified
(0.0000°N, 0.0000°E)
Time: 17:37:10
(UTC+00:00)
Language:

AAUSAT 4 - Orbit

View from above orbital plane
View from above orbital plane
View from above satellite
View from above satellite

Ground track
Ground track

The orbit data is extracted from the following two-line orbital elements,

1 41460U 16025E   23249.64202974  .12631104  31719-5  12263-2 0  9993
2 41460  98.1230 117.5662 0005091 191.8577 168.2600 16.38441291406586
Epoch (UTC): 06 September 2023 15:24:31
Eccentricity: 0.0005091
inclination: 98.1230°
perigee height: 166 km
apogee height: 173 km
right ascension of ascending node: 117.5662°
argument of perigee: 191.8577°
revolutions per day: 16.38441291
mean anomaly at epoch: 168.2600°
orbit number at epoch: 40658

The dashed part of the orbit path shows where the satellite is in the earth's shadow,  

DLR